{"data":{"norad_id":67524,"epoch":"2026-05-25T01:29:30.840864Z","epoch_age_seconds":70432,"freshness":"FRESH","line1":"1 67524U 26013C   26145.06216251 -.00000090  00000+0  73278-4 0  9997","line2":"2 67524  50.0092  78.6917 0000902  26.3059 333.7859 13.29329608 16970","mean_motion":13.29329608,"eccentricity":9.02e-5,"inclination_deg":50.0092,"raan_deg":78.6917,"arg_perigee_deg":26.3059,"mean_anomaly_deg":333.7859,"bstar":7.3278e-5,"rev_number":1697,"period_min":108.32527849632,"perigee_km":1148.6139772585,"apogee_km":1149.9719256218,"semimajor_km":7527.4299514401,"source":"CELESTRAK","updated_at":"2026-05-25T13:38:07.049786Z"}}